GFSFLT1_prec_precacc24_219.txt.gz
Total_Precipitation_Accumulation
0.00 0.00 0.00 0.00 0.00 0.04 0.07 0.02 0.03 0.04 0.02 0.02 0.03 0.04 0.05 0.02 0.03 0.05 0.04 0.04 0.05 0.06 0.07 0.12 0.06 0.02 0.01 0.00 0.00 0.00 0.00 0.00
0.00 0.00 0.00 0.00 0.00 0.01 0.04 0.02 0.03 0.03 0.04 0.04 0.03 0.02 0.03 0.04 0.05 0.05 0.07 0.04 0.03 0.04 0.05 0.06 0.03 0.02 0.01 0.01 0.00 0.00 0.00 0.00
0.00 0.00 0.00 0.00 0.00 0.00 0.00 0.00 0.00 0.00 0.01 0.02 0.01 0.01 0.01 0.01 0.02 0.04 0.06 0.09 0.13 0.10 0.09 0.10 0.10 0.08 0.04 0.04 0.01 0.01 0.00 0.01
0.00 0.00 0.00 0.00 0.00 0.00 0.00 0.00 0.00 0.00 0.02 0.03 0.03 0.02 0.02 0.01 0.01 0.02 0.03 0.11 0.17 0.13 0.11 0.11 0.13 0.14 0.12 0.09 0.10 0.08 0.04 0.02
0.00 0.00 0.00 0.00 0.00 0.00 0.00 0.00 0.00 0.00 0.02 0.04 0.04 0.03 0.02 0.01 0.03 0.06 0.09 0.13 0.13 0.13 0.09 0.08 0.08 0.08 0.09 0.09 0.07 0.09 0.07 0.07
0.00 0.00 0.00 0.00 0.00 0.00 0.00 0.00 0.00 0.02 0.04 0.06 0.07 0.06 0.05 0.05 0.10 0.12 0.10 0.10 0.09 0.09 0.07 0.07 0.07 0.06 0.07 0.09 0.07 0.06 0.08 0.07
0.00 0.00 0.00 0.00 0.00 0.01 0.02 0.02 0.03 0.04 0.06 0.07 0.10 0.09 0.07 0.08 0.08 0.08 0.08 0.07 0.06 0.05 0.07 0.07 0.07 0.07 0.09 0.11 0.12 0.12 0.10 0.08
0.00 0.00 0.00 0.00 0.02 0.06 0.09 0.10 0.11 0.12 0.12 0.12 0.13 0.12 0.13 0.12 0.09 0.08 0.08 0.07 0.07 0.06 0.06 0.06 0.05 0.05 0.06 0.08 0.12 0.15 0.17 0.17
0.00 0.00 0.00 0.00 0.01 0.05 0.09 0.15 0.16 0.17 0.17 0.16 0.15 0.11 0.08 0.08 0.09 0.10 0.10 0.08 0.10 0.12 0.15 0.18 0.21 0.23 0.25 0.26 0.28 0.29 0.24 0.20
0.00 0.00 0.00 0.00 0.00 0.01 0.06 0.11 0.15 0.16 0.14 0.13 0.17 0.24 0.27 0.30 0.38 0.46 0.55 0.58 0.58 0.57 0.58 0.57 0.55 0.49 0.43 0.39 0.35 0.33 0.37 0.33
0.00 0.00 0.00 0.00 0.00 0.00 0.00 0.03 0.13 0.22 0.33 0.37 0.37 0.30 0.23 0.22 0.30 0.37 0.37 0.37 0.43 0.43 0.40 0.35 0.29 0.26 0.25 0.24 0.24 0.21 0.23 0.26
0.00 0.01 0.01 0.00 0.00 0.00 0.00 0.00 0.00 0.03 0.08 0.18 0.37 0.55 0.51 0.38 0.25 0.19 0.19 0.21 0.20 0.23 0.28 0.32 0.34 0.30 0.33 0.39 0.44 0.47 0.49 0.51
0.00 0.03 0.06 0.01 0.01 0.00 0.00 0.00 0.00 0.00 0.01 0.02 0.07 0.15 0.24 0.27 0.27 0.26 0.20 0.19 0.23 0.31 0.33 0.36 0.33 0.36 0.38 0.40 0.41 0.40 0.40 0.41
0.00 0.00 0.04 0.02 0.01 0.00 0.00 0.00 0.01 0.01 0.01 0.01 0.01 0.07 0.15 0.23 0.26 0.24 0.20 0.20 0.24 0.31 0.36 0.42 0.49 0.64 0.79 0.80 0.70 0.58 0.51 0.49
0.00 0.00 0.00 0.00 0.00 0.00 0.00 0.00 0.00 0.00 0.01 0.01 0.01 0.01 0.03 0.07 0.15 0.24 0.37 0.50 0.59 0.63 0.66 0.66 0.66 0.68 0.67 0.67 0.70 0.73 0.72 0.67
0.00 0.00 0.00 0.00 0.00 0.00 0.02 0.00 0.01 0.00 0.00 0.00 0.00 0.01 0.01 0.02 0.04 0.09 0.21 0.42 0.57 0.73 0.79 0.84 0.84 0.78 0.73 0.64 0.56 0.54 0.59 0.69
0.00 0.00 0.00 0.00 0.01 0.02 0.03 0.04 0.04 0.04 0.02 0.01 0.01 0.01 0.00 0.01 0.03 0.07 0.12 0.17 0.23 0.37 0.60 0.67 0.69 0.63 0.67 0.73 0.76 0.68 0.64 0.68
0.00 0.00 0.01 0.03 0.04 0.10 0.12 0.08 0.07 0.05 0.03 0.00 0.01 0.01 0.01 0.01 0.02 0.06 0.09 0.13 0.19 0.22 0.28 0.34 0.44 0.55 0.63 0.61 0.59 0.65 0.63 0.60
0.03 0.03 0.04 0.06 0.07 0.08 0.11 0.11 0.06 0.03 0.01 0.00 0.00 0.00 0.00 0.00 0.01 0.03 0.05 0.10 0.15 0.21 0.25 0.25 0.32 0.32 0.29 0.33 0.37 0.39 0.43 0.46

GFSFLT1_prec_precacc24_225.txt.gz
Total_Precipitation_Accumulation
0.00 0.00 0.00 0.00 0.02 0.09 0.12 0.12 0.11 0.14 0.14 0.09 0.06 0.05 0.05 0.03 0.03 0.05 0.05 0.04 0.06 0.07 0.08 0.12 0.06 0.02 0.01 0.00 0.00 0.00 0.00 0.00
0.00 0.00 0.00 0.00 0.00 0.03 0.09 0.08 0.09 0.12 0.12 0.06 0.03 0.03 0.03 0.04 0.05 0.06 0.08 0.06 0.06 0.06 0.07 0.09 0.05 0.03 0.04 0.03 0.01 0.00 0.00 0.00
0.00 0.00 0.00 0.00 0.00 0.00 0.02 0.05 0.03 0.06 0.06 0.06 0.04 0.03 0.01 0.01 0.02 0.05 0.07 0.11 0.18 0.15 0.14 0.16 0.23 0.19 0.19 0.29 0.19 0.12 0.06 0.07
0.00 0.00 0.00 0.00 0.00 0.00 0.00 0.01 0.03 0.03 0.03 0.03 0.03 0.03 0.02 0.01 0.01 0.01 0.03 0.12 0.19 0.17 0.16 0.16 0.20 0.20 0.19 0.24 0.32 0.25 0.18 0.13
0.00 0.00 0.00 0.00 0.00 0.00 0.00 0.00 0.00 0.00 0.02 0.02 0.03 0.02 0.01 0.01 0.02 0.06 0.09 0.13 0.13 0.13 0.09 0.08 0.08 0.08 0.09 0.09 0.08 0.10 0.10 0.11
0.00 0.00 0.00 0.00 0.00 0.00 0.00 0.01 0.01 0.00 0.00 0.01 0.02 0.02 0.02 0.04 0.07 0.10 0.09 0.10 0.09 0.09 0.07 0.07 0.07 0.06 0.07 0.10 0.07 0.06 0.08 0.08
0.00 0.00 0.00 0.00 0.00 0.00 0.00 0.00 0.00 0.00 0.00 0.01 0.01 0.01 0.01 0.03 0.04 0.06 0.06 0.07 0.06 0.05 0.07 0.07 0.07 0.07 0.09 0.11 0.12 0.12 0.10 0.09
0.00 0.00 0.00 0.00 0.00 0.00 0.00 0.00 0.00 0.00 0.00 0.00 0.01 0.01 0.01 0.01 0.02 0.04 0.04 0.05 0.05 0.05 0.06 0.06 0.05 0.05 0.06 0.08 0.12 0.15 0.17 0.17
0.00 0.00 0.00 0.00 0.00 0.00 0.00 0.00 0.00 0.00 0.00 0.00 0.00 0.00 0.00 0.01 0.01 0.02 0.04 0.03 0.05 0.09 0.13 0.17 0.20 0.23 0.25 0.26 0.28 0.29 0.24 0.20
0.00 0.00 0.00 0.00 0.00 0.00 0.00 0.00 0.00 0.00 0.00 0.00 0.00 0.00 0.00 0.01 0.03 0.04 0.07 0.11 0.23 0.44 0.56 0.56 0.55 0.49 0.43 0.39 0.34 0.32 0.35 0.31
0.00 0.00 0.00 0.00 0.00 0.00 0.00 0.00 0.00 0.00 0.00 0.00 0.00 0.00 0.00 0.01 0.06 0.18 0.22 0.22 0.27 0.36 0.35 0.31 0.24 0.22 0.21 0.20 0.20 0.18 0.19 0.21
0.00 0.00 0.00 0.00 0.00 0.00 0.00 0.00 0.00 0.00 0.00 0.00 0.00 0.00 0.00 0.01 0.03 0.05 0.12 0.16 0.14 0.16 0.17 0.18 0.20 0.15 0.14 0.16 0.20 0.23 0.26 0.29
0.00 0.00 0.00 0.00 0.00 0.00 0.00 0.00 0.00 0.00 0.00 0.00 0.00 0.00 0.00 0.00 0.00 0.03 0.10 0.10 0.13 0.16 0.20 0.25 0.24 0.24 0.23 0.21 0.22 0.23 0.24 0.27
0.00 0.00 0.00 0.00 0.00 0.00 0.00 0.00 0.00 0.00 0.00 0.00 0.00 0.00 0.00 0.00 0.01 0.02 0.02 0.05 0.08 0.11 0.18 0.25 0.34 0.45 0.55 0.57 0.52 0.45 0.42 0.41
0.00 0.00 0.00 0.00 0.00 0.00 0.00 0.00 0.00 0.00 0.00 0.00 0.00 0.00 0.00 0.01 0.02 0.04 0.08 0.13 0.16 0.23 0.31 0.38 0.43 0.47 0.53 0.58 0.63 0.67 0.67 0.62
0.00 0.00 0.00 0.00 0.00 0.00 0.00 0.00 0.00 0.00 0.00 0.00 0.00 0.00 0.00 0.00 0.02 0.03 0.11 0.23 0.32 0.45 0.48 0.54 0.64 0.69 0.69 0.62 0.55 0.53 0.59 0.68
0.00 0.00 0.00 0.00 0.00 0.00 0.00 0.00 0.00 0.01 0.02 0.01 0.01 0.01 0.00 0.01 0.01 0.02 0.04 0.06 0.09 0.23 0.48 0.59 0.64 0.61 0.66 0.71 0.75 0.68 0.63 0.68
0.00 0.00 0.00 0.00 0.00 0.00 0.01 0.00 0.01 0.02 0.02 0.00 0.01 0.01 0.01 0.01 0.02 0.04 0.05 0.08 0.12 0.15 0.20 0.29 0.40 0.49 0.59 0.57 0.60 0.65 0.63 0.60
0.00 0.00 0.00 0.00 0.00 0.01 0.01 0.02 0.02 0.02 0.01 0.00 0.00 0.00 0.00 0.00 0.01 0.02 0.04 0.08 0.12 0.17 0.21 0.22 0.25 0.25 0.27 0.33 0.37 0.38 0.42 0.45

GFSFLT1_prec_precacc24_228.txt.gz
Total_Precipitation_Accumulation
0.00 0.00 0.00 0.00 0.02 0.09 0.12 0.13 0.13 0.16 0.17 0.11 0.09 0.06 0.05 0.03 0.03 0.05 0.05 0.04 0.06 0.07 0.08 0.13 0.06 0.02 0.01 0.01 0.01 0.00 0.00 0.00
0.00 0.00 0.00 0.00 0.00 0.03 0.09 0.08 0.11 0.12 0.12 0.07 0.06 0.09 0.05 0.04 0.05 0.06 0.08 0.06 0.06 0.06 0.08 0.10 0.07 0.07 0.10 0.05 0.01 0.00 0.00 0.01
0.00 0.00 0.00 0.00 0.00 0.00 0.02 0.06 0.04 0.07 0.07 0.08 0.06 0.08 0.02 0.01 0.02 0.06 0.10 0.14 0.20 0.17 0.19 0.28 0.34 0.24 0.24 0.32 0.21 0.12 0.07 0.08
0.00 0.00 0.00 0.00 0.00 0.00 0.00 0.02 0.05 0.07 0.05 0.05 0.04 0.04 0.02 0.01 0.01 0.02 0.06 0.15 0.22 0.21 0.21 0.19 0.23 0.22 0.20 0.26 0.33 0.25 0.18 0.14
0.00 0.00 0.00 0.00 0.00 0.00 0.00 0.00 0.01 0.01 0.04 0.02 0.02 0.02 0.01 0.01 0.00 0.02 0.03 0.09 0.13 0.13 0.09 0.09 0.09 0.08 0.09 0.09 0.08 0.10 0.10 0.11
0.00 0.00 0.00 0.00 0.00 0.00 0.00 0.01 0.01 0.02 0.01 0.02 0.03 0.01 0.00 0.00 0.00 0.00 0.02 0.05 0.07 0.08 0.07 0.07 0.07 0.06 0.07 0.10 0.07 0.06 0.08 0.08
0.00 0.00 0.00 0.00 0.00 0.00 0.00 0.00 0.00 0.00 0.00 0.01 0.01 0.01 0.01 0.01 0.01 0.00 0.00 0.01 0.02 0.03 0.05 0.07 0.06 0.07 0.09 0.11 0.12 0.12 0.10 0.09
0.00 0.00 0.00 0.00 0.00 0.00 0.00 0.00 0.00 0.00 0.00 0.00 0.01 0.00 0.00 0.01 0.00 0.00 0.00 0.00 0.01 0.01 0.03 0.04 0.03 0.04 0.05 0.07 0.11 0.15 0.17 0.17
0.00 0.00 0.00 0.00 0.00 0.00 0.00 0.00 0.00 0.00 0.00 0.00 0.01 0.01 0.00 0.00 0.00 0.00 0.00 0.00 0.00 0.00 0.01 0.02 0.03 0.04 0.07 0.10 0.15 0.26 0.24 0.20
0.00 0.00 0.00 0.00 0.00 0.00 0.00 0.00 0.00 0.01 0.01 0.00 0.00 0.00 0.00 0.00 0.00 0.00 0.00 0.00 0.00 0.00 0.00 0.03 0.07 0.13 0.24 0.28 0.26 0.27 0.34 0.31
0.00 0.00 0.00 0.00 0.00 0.00 0.00 0.00 0.00 0.00 0.00 0.00 0.00 0.00 0.00 0.00 0.00 0.00 0.00 0.00 0.00 0.00 0.00 0.01 0.03 0.05 0.09 0.13 0.14 0.15 0.17 0.18
0.00 0.00 0.00 0.00 0.00 0.00 0.00 0.00 0.00 0.00 0.00 0.00 0.00 0.00 0.00 0.00 0.00 0.00 0.00 0.00 0.01 0.01 0.01 0.01 0.01 0.01 0.03 0.05 0.08 0.11 0.14 0.17
0.00 0.00 0.00 0.00 0.00 0.00 0.00 0.00 0.00 0.00 0.00 0.00 0.00 0.00 0.00 0.00 0.00 0.00 0.00 0.01 0.03 0.06 0.07 0.08 0.08 0.07 0.07 0.06 0.08 0.11 0.16 0.23
0.00 0.00 0.00 0.00 0.00 0.00 0.00 0.00 0.00 0.00 0.00 0.00 0.00 0.00 0.00 0.00 0.00 0.00 0.00 0.01 0.04 0.07 0.07 0.07 0.11 0.19 0.26 0.28 0.27 0.28 0.35 0.39
0.00 0.00 0.00 0.00 0.00 0.00 0.00 0.00 0.00 0.00 0.00 0.00 0.00 0.00 0.00 0.00 0.00 0.00 0.00 0.02 0.04 0.08 0.16 0.20 0.20 0.18 0.20 0.31 0.46 0.59 0.63 0.61
0.00 0.00 0.00 0.00 0.00 0.00 0.00 0.00 0.00 0.00 0.00 0.00 0.00 0.00 0.00 0.00 0.00 0.00 0.01 0.06 0.10 0.16 0.20 0.24 0.32 0.42 0.50 0.52 0.49 0.50 0.57 0.67
0.00 0.00 0.00 0.00 0.00 0.00 0.00 0.00 0.00 0.00 0.00 0.00 0.01 0.01 0.00 0.00 0.00 0.00 0.01 0.01 0.02 0.08 0.30 0.39 0.46 0.49 0.57 0.66 0.73 0.67 0.62 0.67
0.00 0.00 0.00 0.00 0.00 0.00 0.00 0.00 0.00 0.00 0.00 0.00 0.00 0.00 0.01 0.01 0.01 0.01 0.02 0.05 0.08 0.11 0.16 0.25 0.36 0.46 0.56 0.56 0.59 0.65 0.63 0.60
0.00 0.00 0.00 0.00 0.00 0.00 0.00 0.00 0.00 0.00 0.00 0.00 0.00 0.00 0.00 0.00 0.00 0.00 0.01 0.04 0.08 0.12 0.16 0.18 0.21 0.24 0.27 0.32 0.37 0.38 0.42 0.45

GFSFLT1_prec_precacc24_231.txt.gz
Total_Precipitation_Accumulation
0.00 0.00 0.00 0.00 0.02 0.09 0.12 0.13 0.13 0.16 0.17 0.12 0.10 0.07 0.05 0.03 0.03 0.03 0.03 0.04 0.05 0.06 0.08 0.13 0.06 0.02 0.02 0.03 0.02 0.00 0.00 0.00
0.00 0.00 0.00 0.00 0.00 0.03 0.09 0.08 0.11 0.12 0.12 0.06 0.05 0.09 0.05 0.04 0.05 0.05 0.05 0.05 0.05 0.05 0.07 0.10 0.07 0.07 0.11 0.06 0.02 0.01 0.00 0.01
0.00 0.00 0.00 0.00 0.00 0.00 0.02 0.06 0.04 0.06 0.08 0.08 0.06 0.08 0.02 0.01 0.02 0.06 0.09 0.11 0.16 0.16 0.18 0.28 0.34 0.25 0.25 0.33 0.22 0.12 0.07 0.08
0.00 0.00 0.00 0.00 0.00 0.00 0.00 0.02 0.05 0.07 0.07 0.05 0.03 0.02 0.01 0.01 0.01 0.02 0.04 0.08 0.15 0.18 0.19 0.18 0.23 0.22 0.20 0.26 0.33 0.25 0.18 0.14
0.00 0.00 0.00 0.00 0.00 0.00 0.00 0.00 0.01 0.02 0.05 0.02 0.02 0.01 0.01 0.01 0.05 0.06 0.04 0.02 0.04 0.08 0.07 0.08 0.09 0.09 0.10 0.09 0.08 0.10 0.10 0.11
0.00 0.00 0.00 0.00 0.00 0.00 0.00 0.01 0.01 0.02 0.01 0.01 0.02 0.01 0.01 0.01 0.01 0.01 0.01 0.01 0.01 0.04 0.05 0.06 0.06 0.06 0.07 0.10 0.07 0.06 0.08 0.08
0.00 0.00 0.00 0.00 0.00 0.00 0.00 0.00 0.00 0.00 0.00 0.02 0.01 0.01 0.02 0.01 0.01 0.01 0.00 0.01 0.01 0.01 0.02 0.03 0.04 0.05 0.08 0.11 0.12 0.12 0.10 0.09
0.00 0.00 0.00 0.00 0.00 0.00 0.00 0.00 0.00 0.00 0.01 0.02 0.04 0.03 0.02 0.01 0.00 0.01 0.02 0.00 0.01 0.00 0.01 0.01 0.01 0.01 0.03 0.05 0.10 0.14 0.16 0.17
0.00 0.00 0.00 0.00 0.00 0.00 0.00 0.00 0.00 0.00 0.01 0.01 0.03 0.04 0.01 0.01 0.01 0.01 0.01 0.00 0.00 0.00 0.01 0.01 0.01 0.01 0.02 0.02 0.03 0.06 0.09 0.11
0.00 0.00 0.00 0.00 0.00 0.00 0.00 0.00 0.00 0.02 0.02 0.03 0.04 0.04 0.02 0.02 0.01 0.01 0.00 0.00 0.00 0.00 0.00 0.00 0.00 0.01 0.01 0.02 0.02 0.03 0.10 0.12
0.00 0.00 0.00 0.00 0.00 0.00 0.00 0.00 0.00 0.00 0.02 0.02 0.03 0.04 0.01 0.01 0.01 0.00 0.00 0.00 0.00 0.00 0.00 0.00 0.00 0.00 0.01 0.02 0.03 0.03 0.07 0.10
0.00 0.00 0.00 0.00 0.00 0.00 0.00 0.00 0.00 0.00 0.00 0.00 0.00 0.01 0.00 0.00 0.00 0.00 0.00 0.00 0.00 0.00 0.00 0.00 0.00 0.00 0.00 0.00 0.00 0.01 0.02 0.04
0.00 0.00 0.00 0.00 0.00 0.00 0.00 0.00 0.00 0.00 0.00 0.00 0.00 0.00 0.00 0.00 0.00 0.00 0.00 0.00 0.00 0.00 0.00 0.01 0.04 0.04 0.03 0.03 0.03 0.01 0.01 0.03
0.00 0.00 0.00 0.00 0.00 0.00 0.00 0.00 0.00 0.00 0.00 0.00 0.00 0.00 0.00 0.00 0.00 0.00 0.00 0.00 0.00 0.00 0.01 0.02 0.06 0.12 0.18 0.19 0.17 0.15 0.18 0.22
0.00 0.00 0.00 0.00 0.00 0.00 0.00 0.00 0.00 0.00 0.00 0.00 0.00 0.00 0.00 0.00 0.00 0.00 0.00 0.00 0.00 0.00 0.00 0.01 0.03 0.06 0.12 0.18 0.29 0.42 0.50 0.49
0.00 0.00 0.00 0.00 0.00 0.00 0.00 0.00 0.00 0.00 0.00 0.00 0.00 0.00 0.00 0.00 0.00 0.00 0.00 0.00 0.00 0.00 0.01 0.03 0.05 0.10 0.17 0.20 0.25 0.29 0.40 0.54
0.00 0.00 0.00 0.00 0.00 0.00 0.00 0.00 0.00 0.00 0.00 0.00 0.00 0.00 0.00 0.00 0.00 0.00 0.00 0.00 0.00 0.00 0.00 0.04 0.09 0.12 0.21 0.31 0.43 0.46 0.46 0.53
0.00 0.00 0.00 0.00 0.00 0.00 0.00 0.00 0.00 0.00 0.00 0.00 0.00 0.00 0.00 0.00 0.00 0.00 0.00 0.00 0.01 0.04 0.04 0.05 0.09 0.17 0.27 0.29 0.35 0.46 0.48 0.49
0.00 0.00 0.00 0.00 0.00 0.00 0.00 0.00 0.00 0.00 0.00 0.00 0.00 0.00 0.00 0.00 0.00 0.00 0.00 0.00 0.00 0.01 0.04 0.03 0.05 0.11 0.16 0.20 0.26 0.30 0.35 0.41

GFSFLT1_prec_precacc24_234.txt.gz
Total_Precipitation_Accumulation
0.00 0.00 0.00 0.00 0.02 0.09 0.12 0.13 0.13 0.16 0.16 0.11 0.09 0.06 0.05 0.02 0.03 0.03 0.03 0.03 0.04 0.05 0.07 0.12 0.06 0.02 0.02 0.03 0.02 0.01 0.01 0.01
0.00 0.00 0.00 0.00 0.00 0.03 0.09 0.08 0.10 0.11 0.11 0.06 0.05 0.08 0.05 0.04 0.05 0.05 0.05 0.04 0.05 0.04 0.06 0.09 0.06 0.07 0.12 0.06 0.02 0.03 0.07 0.03
0.00 0.00 0.00 0.00 0.00 0.00 0.02 0.06 0.04 0.06 0.08 0.07 0.06 0.07 0.02 0.01 0.02 0.05 0.07 0.09 0.12 0.12 0.15 0.26 0.33 0.25 0.26 0.33 0.22 0.13 0.08 0.08
0.00 0.00 0.00 0.00 0.00 0.00 0.00 0.02 0.05 0.07 0.08 0.05 0.03 0.02 0.01 0.00 0.01 0.01 0.03 0.06 0.09 0.12 0.15 0.14 0.20 0.20 0.20 0.27 0.34 0.26 0.18 0.14
0.00 0.00 0.00 0.00 0.00 0.00 0.00 0.00 0.01 0.02 0.05 0.02 0.02 0.01 0.02 0.02 0.05 0.07 0.05 0.03 0.03 0.03 0.03 0.05 0.06 0.07 0.09 0.09 0.08 0.11 0.11 0.12
0.00 0.00 0.00 0.00 0.00 0.00 0.00 0.01 0.01 0.02 0.01 0.01 0.03 0.03 0.01 0.02 0.01 0.02 0.02 0.02 0.02 0.03 0.03 0.03 0.05 0.05 0.08 0.11 0.08 0.06 0.08 0.09
0.00 0.00 0.00 0.00 0.00 0.00 0.00 0.00 0.00 0.00 0.00 0.02 0.02 0.04 0.02 0.02 0.02 0.03 0.09 0.03 0.07 0.06 0.02 0.03 0.03 0.04 0.04 0.08 0.11 0.11 0.09 0.09
0.00 0.00 0.00 0.00 0.00 0.00 0.00 0.00 0.00 0.00 0.01 0.02 0.04 0.04 0.04 0.03 0.02 0.08 0.12 0.07 0.06 0.02 0.01 0.01 0.01 0.01 0.01 0.02 0.07 0.12 0.15 0.16
0.00 0.00 0.00 0.00 0.00 0.00 0.00 0.00 0.00 0.00 0.01 0.01 0.05 0.07 0.04 0.03 0.11 0.17 0.12 0.07 0.04 0.01 0.01 0.01 0.01 0.01 0.02 0.01 0.02 0.05 0.08 0.10
0.00 0.00 0.00 0.00 0.00 0.00 0.00 0.00 0.00 0.02 0.02 0.03 0.05 0.05 0.03 0.06 0.14 0.09 0.04 0.05 0.01 0.00 0.00 0.00 0.00 0.01 0.01 0.01 0.01 0.01 0.08 0.10
0.00 0.00 0.00 0.00 0.00 0.00 0.00 0.00 0.00 0.00 0.02 0.02 0.04 0.06 0.03 0.04 0.06 0.07 0.04 0.01 0.00 0.00 0.00 0.00 0.00 0.00 0.00 0.01 0.01 0.01 0.03 0.06
0.00 0.00 0.00 0.00 0.00 0.00 0.00 0.00 0.00 0.00 0.00 0.00 0.01 0.02 0.02 0.03 0.05 0.03 0.01 0.00 0.00 0.00 0.00 0.00 0.00 0.00 0.00 0.00 0.00 0.00 0.01 0.03
0.00 0.00 0.00 0.00 0.00 0.00 0.00 0.00 0.00 0.00 0.00 0.00 0.00 0.02 0.01 0.02 0.02 0.01 0.00 0.00 0.00 0.00 0.00 0.00 0.00 0.00 0.00 0.00 0.00 0.01 0.01 0.02
0.00 0.00 0.00 0.00 0.00 0.00 0.00 0.00 0.00 0.00 0.00 0.00 0.00 0.01 0.00 0.01 0.00 0.00 0.00 0.00 0.00 0.00 0.00 0.00 0.00 0.00 0.00 0.00 0.01 0.02 0.03 0.07
0.00 0.00 0.00 0.00 0.00 0.00 0.00 0.00 0.00 0.00 0.00 0.00 0.00 0.01 0.01 0.01 0.01 0.00 0.00 0.00 0.00 0.00 0.00 0.00 0.00 0.00 0.00 0.00 0.01 0.03 0.11 0.16
0.00 0.00 0.00 0.00 0.00 0.00 0.00 0.00 0.00 0.00 0.00 0.00 0.00 0.00 0.01 0.00 0.00 0.00 0.00 0.00 0.00 0.00 0.00 0.00 0.00 0.00 0.01 0.02 0.02 0.05 0.15 0.25
0.00 0.00 0.00 0.00 0.00 0.00 0.00 0.00 0.00 0.00 0.00 0.00 0.00 0.00 0.00 0.00 0.00 0.00 0.00 0.00 0.00 0.00 0.00 0.00 0.00 0.00 0.01 0.03 0.05 0.07 0.14 0.30
0.00 0.00 0.00 0.00 0.00 0.00 0.00 0.00 0.00 0.00 0.00 0.00 0.00 0.00 0.00 0.00 0.00 0.00 0.00 0.00 0.00 0.01 0.00 0.01 0.00 0.00 0.03 0.06 0.13 0.24 0.28 0.28
0.00 0.00 0.00 0.00 0.00 0.00 0.00 0.00 0.00 0.00 0.00 0.00 0.00 0.00 0.00 0.00 0.00 0.00 0.00 0.00 0.00 0.00 0.00 0.00 0.00 0.01 0.04 0.06 0.11 0.14 0.19 0.24

GFSFLT1_prec_precacc24_237.txt.gz
Total_Precipitation_Accumulation
0.00 0.00 0.00 0.00 0.02 0.09 0.12 0.13 0.13 0.15 0.16 0.11 0.09 0.06 0.04 0.02 0.02 0.02 0.02 0.02 0.04 0.04 0.06 0.11 0.04 0.01 0.02 0.03 0.02 0.01 0.01 0.01
0.00 0.00 0.00 0.00 0.00 0.03 0.09 0.08 0.10 0.11 0.10 0.04 0.04 0.08 0.05 0.03 0.04 0.04 0.04 0.03 0.04 0.03 0.06 0.09 0.05 0.07 0.11 0.07 0.05 0.09 0.17 0.10
0.00 0.00 0.00 0.00 0.00 0.00 0.02 0.06 0.04 0.06 0.07 0.06 0.05 0.07 0.02 0.01 0.01 0.03 0.05 0.06 0.10 0.11 0.14 0.25 0.33 0.26 0.31 0.41 0.30 0.20 0.15 0.15
0.00 0.00 0.00 0.00 0.00 0.00 0.00 0.02 0.05 0.07 0.08 0.04 0.03 0.02 0.01 0.00 0.01 0.01 0.02 0.05 0.08 0.09 0.12 0.11 0.20 0.24 0.27 0.30 0.35 0.29 0.24 0.15
0.00 0.00 0.00 0.00 0.00 0.00 0.00 0.00 0.01 0.02 0.05 0.02 0.02 0.01 0.02 0.02 0.05 0.07 0.05 0.02 0.02 0.03 0.02 0.03 0.04 0.06 0.10 0.11 0.09 0.12 0.11 0.11
0.00 0.00 0.00 0.00 0.00 0.00 0.00 0.01 0.01 0.02 0.01 0.01 0.03 0.03 0.01 0.02 0.01 0.02 0.02 0.02 0.02 0.02 0.03 0.03 0.03 0.03 0.04 0.08 0.08 0.07 0.07 0.08
0.00 0.00 0.00 0.00 0.00 0.00 0.00 0.00 0.00 0.00 0.00 0.02 0.02 0.04 0.02 0.02 0.02 0.04 0.09 0.03 0.07 0.14 0.05 0.03 0.04 0.05 0.03 0.04 0.06 0.09 0.08 0.07
0.00 0.00 0.00 0.00 0.00 0.00 0.00 0.00 0.00 0.00 0.01 0.02 0.04 0.04 0.04 0.03 0.03 0.10 0.12 0.11 0.17 0.11 0.02 0.02 0.02 0.01 0.01 0.01 0.04 0.08 0.12 0.14
0.00 0.00 0.00 0.00 0.00 0.00 0.00 0.00 0.00 0.00 0.01 0.01 0.05 0.07 0.04 0.03 0.11 0.20 0.17 0.14 0.11 0.03 0.02 0.01 0.01 0.01 0.02 0.01 0.01 0.02 0.03 0.06
0.00 0.00 0.00 0.00 0.00 0.00 0.00 0.00 0.00 0.02 0.02 0.03 0.05 0.05 0.03 0.07 0.16 0.13 0.08 0.07 0.05 0.05 0.03 0.01 0.00 0.00 0.01 0.01 0.01 0.01 0.01 0.01
0.00 0.00 0.00 0.00 0.00 0.00 0.00 0.00 0.00 0.00 0.02 0.02 0.04 0.07 0.04 0.07 0.10 0.09 0.06 0.04 0.04 0.03 0.01 0.00 0.00 0.00 0.00 0.01 0.01 0.01 0.01 0.00
0.00 0.00 0.00 0.00 0.00 0.00 0.00 0.00 0.00 0.00 0.00 0.00 0.01 0.03 0.03 0.05 0.11 0.06 0.02 0.01 0.00 0.00 0.00 0.00 0.00 0.00 0.00 0.00 0.00 0.00 0.00 0.00
0.00 0.00 0.00 0.00 0.00 0.00 0.00 0.00 0.00 0.00 0.00 0.00 0.01 0.03 0.02 0.04 0.05 0.04 0.02 0.01 0.00 0.00 0.00 0.00 0.00 0.00 0.00 0.00 0.00 0.00 0.00 0.00
0.00 0.00 0.00 0.00 0.00 0.00 0.00 0.00 0.00 0.00 0.00 0.00 0.02 0.03 0.01 0.02 0.02 0.01 0.00 0.00 0.00 0.00 0.00 0.00 0.00 0.00 0.00 0.00 0.00 0.00 0.00 0.00
0.00 0.00 0.00 0.00 0.00 0.00 0.00 0.00 0.00 0.00 0.00 0.00 0.02 0.02 0.03 0.04 0.03 0.03 0.01 0.00 0.00 0.00 0.00 0.00 0.00 0.00 0.00 0.00 0.00 0.00 0.00 0.00
0.00 0.00 0.00 0.00 0.00 0.00 0.00 0.00 0.00 0.00 0.00 0.00 0.00 0.01 0.03 0.02 0.01 0.01 0.00 0.00 0.00 0.00 0.00 0.00 0.00 0.00 0.00 0.00 0.00 0.00 0.00 0.00
0.00 0.00 0.00 0.00 0.00 0.00 0.00 0.00 0.00 0.00 0.00 0.00 0.00 0.01 0.02 0.01 0.00 0.00 0.00 0.00 0.00 0.00 0.00 0.00 0.00 0.00 0.00 0.00 0.00 0.00 0.00 0.01
0.00 0.00 0.00 0.00 0.00 0.00 0.00 0.00 0.00 0.00 0.00 0.00 0.00 0.00 0.01 0.01 0.00 0.00 0.00 0.00 0.00 0.01 0.00 0.00 0.00 0.00 0.01 0.00 0.01 0.01 0.02 0.05
0.00 0.00 0.00 0.00 0.00 0.00 0.00 0.00 0.00 0.00 0.00 0.00 0.00 0.00 0.00 0.00 0.00 0.00 0.00 0.00 0.00 0.00 0.00 0.00 0.00 0.01 0.01 0.00 0.01 0.01 0.03 0.06